Location: Unspecified
(46.0725°N, 13.7344°E)
Time: 08:38:04
(UTC+01:00)

Cosmos 2058 - Pass Details

Date: 01 November 2019
Orbit: 563 x 584 km, 82.5° (Epoch: 17 November)

Event Time Altitude Azimuth Distance (km) Brightness Sun altitude
Rises 17:24:12 0° 353° (N) 2,812 6.4 -6.2°
Reaches altitude 10° 17:26:26 10° 357° (N) 1,905 5.5 -6.6°
Maximum altitude 17:30:36 63° 79° (ENE) 649 2.9 -7.3°
Drops below altitude 10° 17:34:43 10° 161° (SSE) 1,877 5.5 -8.0°
Sets 17:36:54 0° 165° (SSE) 2,767 6.4 -8.4°
